utc_time,unix_time,temp,cond,salinity,tds,chla_rfu,chla_ugl,bga_rfu,bga_ugl,odo,sat,nitrate_um,nitrogen_mg,stage,area,discharge,total_discharge
2024-05-01 00:00:02+00:00,1714521602,19.54,,,,,,,,,,,,,1.5488,0.1074,0.2148
2024-05-01 00:20:02+00:00,1714522802,19.6,,,,,,,,,,,,,1.552,0.112,0.224
2024-05-01 00:40:02+00:00,1714524002,19.66,,,,,,,,,,,,,1.5584,0.1008,0.2016
2024-05-01 01:00:01+00:00,1714525201,19.53,,,,,,,,,,,,,1.5616,0.104,0.208
2024-05-01 01:20:01+00:00,1714526401,19.32,,,,,,,,,,,,,1.5632,0.1114,0.2228
2024-05-01 01:40:02+00:00,1714527602,19.14,,,,,,,,,,,,,1.5695,0.0662,0.1324
2024-05-01 02:00:02+00:00,1714528802,18.92,,,,,,,,,,,,,1.5808,0.0934,0.1868
2024-05-01 02:20:02+00:00,1714530002,18.64,,,,,,,,,,,,,1.5808,0.0964,0.1928
2024-05-01 02:40:02+00:00,1714531202,18.32,,,,,,,,,,,,,1.5839,0.0892,0.1784
2024-05-01 03:00:01+00:00,1714532401,17.95,,,,,,,,,,,,,1.5904,0.0806,0.1612
2024-05-01 03:20:02+00:00,1714533602,17.57,,,,,,,,,,,,,1.5888,0.0924,0.1848
2024-05-01 03:40:02+00:00,1714534802,17.18,,,,,,,,,,,,,1.592,0.0882,0.1764
2024-05-01 04:00:01+00:00,1714536001,16.86,,,,,,,,,,,,,1.592,0.0971,0.1942
2024-05-01 04:20:01+00:00,1714537201,16.61,,,,,,,,,,,,,1.5983,0.063,0.126
2024-05-01 04:40:02+00:00,1714538402,16.42,,,,,,,,,,,,,1.6,0.0676,0.1352
2024-05-01 05:00:01+00:00,1714539601,16.22,,,,,,,,,,,,,-1,0,0
2024-05-01 05:20:02+00:00,1714540802,16.08,,,,,,,,,,,,,1.6048,0.0708,0.1416
2024-05-01 05:40:01+00:00,1714542001,15.93,,,,,,,,,,,,,1.6048,0.0663,0.1326
2024-05-01 06:00:02+00:00,1714543202,15.83,,,,,,,,,,,,,1.608,0.0906,0.1812
2024-05-01 06:20:01+00:00,1714544401,15.73,,,,,,,,,,,,,1.6064,0.0709,0.1418
2024-05-01 06:40:01+00:00,1714545601,15.64,,,,,,,,,,,,,1.6144,0.0637,0.1274
2024-05-01 07:00:02+00:00,1714546802,15.52,,,,,,,,,,,,,1.6176,0.082,0.164
2024-05-01 07:20:01+00:00,1714548001,15.39,,,,,,,,,,,,,1.6208,0.1066,0.2132
2024-05-01 07:40:01+00:00,1714549201,15.32,,,,,,,,,,,,,1.6256,0.0809,0.1618
2024-05-01 08:00:01+00:00,1714550401,15.23,,,,,,,,,,,,,1.6272,0.0902,0.1804
2024-05-01 08:20:02+00:00,1714551602,15.13,,,,,,,,,,,,,1.6304,0.0965,0.193
2024-05-01 08:40:01+00:00,1714552801,15.04,,,,,,,,,,,,,-1,0,0
2024-05-01 09:00:01+00:00,1714554001,14.96,,,,,,,,,,,,,1.0944,0.0696,0.1392
2024-05-01 09:20:02+00:00,1714555202,14.86,,,,,,,,,,,,,-1,0,0
2024-05-01 09:40:01+00:00,1714556401,14.73,,,,,,,,,,,,,-1,0,0
2024-05-01 10:00:01+00:00,1714557601,14.62,,,,,,,,,,,,,-1,0,0
2024-05-01 10:20:01+00:00,1714558801,14.52,,,,,,,,,,,,,-1,0,0
2024-05-01 10:40:02+00:00,1714560002,14.42,,,,,,,,,,,,,-1,0,0
2024-05-01 11:00:01+00:00,1714561201,14.34,,,,,,,,,,,,,-1,0,0
2024-05-01 11:20:01+00:00,1714562401,14.27,,,,,,,,,,,,,1.656,0.1417,0.2834
2024-05-01 11:40:01+00:00,1714563601,14.18,,,,,,,,,,,,,-1,0,0
2024-05-01 12:00:01+00:00,1714564801,14.1,,,,,,,,,,,,,-1,0,0
2024-05-01 12:20:02+00:00,1714566002,14.01,,,,,,,,,,,,,3.36,0.2687,0.5374
2024-05-01 12:40:02+00:00,1714567202,13.93,,,,,,,,,,,,,1.664,0.1549,0.3098
2024-05-01 13:00:01+00:00,1714568401,13.85,,,,,,,,,,,,,1.6656,0.1441,0.2882
2024-05-01 13:20:01+00:00,1714569601,13.8,,,,,,,,,,,,,1.6688,0.1193,0.2386
2024-05-01 13:40:01+00:00,1714570801,13.77,,,,,,,,,,,,,1.6704,0.1163,0.2326
2024-05-01 14:00:01+00:00,1714572001,13.74,,,,,,,,,,,,,1.6736,0.1149,0.2298
2024-05-01 14:20:02+00:00,1714573202,13.71,,,,,,,,,,,,,1.6768,0.0931,0.1862
2024-05-01 14:40:02+00:00,1714574402,13.68,,,,,,,,,,,,,1.68,0.0822,0.1644
2024-05-01 15:00:01+00:00,1714575601,13.65,,,,,,,,,,,,,1.68,0.0838,0.1676
2024-05-01 15:20:01+00:00,1714576801,13.61,,,,,,,,,,,,,1.68,0.0885,0.177
2024-05-01 15:40:01+00:00,1714578001,13.59,,,,,,,,,,,,,1.6816,0.0664,0.1328
2024-05-01 16:00:01+00:00,1714579201,13.64,,,,,,,,,,,,,1.6736,-0.0062,-0.0124
2024-05-01 16:20:01+00:00,1714580401,14.14,,,,,,,,,,,,,1.6496,-0.4312,-0.8624
2024-05-01 16:40:01+00:00,1714581601,14.45,,,,,,,,,,,,,1.6368,-0.6047,-1.2094
2024-05-01 17:00:01+00:00,1714582801,14.65,,,,,,,,,,,,,1.624,-0.5952,-1.1904
2024-05-01 17:20:01+00:00,1714584001,15.12,,,,,,,,,,,,,1.6112,-0.5434,-1.0868
2024-05-01 17:40:02+00:00,1714585202,15.59,,,,,,,,,,,,,1.6,-0.574,-1.148
2024-05-01 18:00:01+00:00,1714586401,16,,,,,,,,,,,,,1.592,-0.5591,-1.1182
2024-05-01 18:20:01+00:00,1714587601,16.17,,,,,,,,,,,,,1.5776,-0.5508,-1.1016
2024-05-01 18:40:01+00:00,1714588801,16.48,,,,,,,,,,,,,1.5664,-0.5438,-1.0876
2024-05-01 19:00:01+00:00,1714590001,16.9,,,,,,,,,,,,,1.5536,-0.5217,-1.0434
2024-05-01 19:20:01+00:00,1714591201,17.47,,,,,,,,,,,,,1.544,-0.5154,-1.0308
2024-05-01 19:40:02+00:00,1714592402,18.03,,,,,,,,,,,,,1.536,-0.504,-1.008
2024-05-01 20:00:02+00:00,1714593602,18.6,,,,,,,,,,,,,1.5232,-0.4739,-0.9478
2024-05-01 20:20:02+00:00,1714594802,18.92,,,,,,,,,,,,,1.5104,-0.4768,-0.9536
2024-05-01 20:40:02+00:00,1714596002,19.29,,,,,,,,,,,,,1.5024,-0.4883,-0.9766
2024-05-01 21:00:01+00:00,1714597201,20.01,,,,,,,,,,,,,1.4992,-0.4788,-0.9576
2024-05-01 21:20:01+00:00,1714598401,20.48,,,,,,,,,,,,,1.5008,-0.3218,-0.6436
2024-05-01 21:40:01+00:00,1714599601,20.44,,,,,,,,,,,,,1.512,0.041,0.082
2024-05-01 22:00:01+00:00,1714600801,20.09,,,,,,,,,,,,,1.504,0.0436,0.0872
2024-05-01 22:20:01+00:00,1714602001,19.93,,,,,,,,,,,,,1.5088,0.0183,0.0366
2024-05-01 22:40:01+00:00,1714603201,19.97,,,,,,,,,,,,,1.5136,0.0723,0.1446
2024-05-01 23:00:01+00:00,1714604401,20,,,,,,,,,,,,,1.5232,0.0214,0.0428
2024-05-01 23:20:01+00:00,1714605601,19.99,,,,,,,,,,,,,1.528,0.1045,0.209
2024-05-01 23:40:02+00:00,1714606802,19.97,,,,,,,,,,,,,1.5312,0.0918,0.1836
2024-05-02 00:00:01+00:00,1714608001,19.95,,,,,,,,,,,,,1.536,0.1152,0.2304
2024-05-02 00:20:01+00:00,1714609201,19.91,,,,,,,,,,,,,1.5408,0.1069,0.2138
2024-05-02 00:40:02+00:00,1714610402,20.02,,,,,,,,,,,,,1.5392,0.0952,0.1904
2024-05-02 01:00:01+00:00,1714611601,20.05,,,,,,,,,,,,,1.544,0.0984,0.1968
2024-05-02 01:20:02+00:00,1714612802,20.05,,,,,,,,,,,,,1.544,0.1056,0.2112
2024-05-02 01:40:01+00:00,1714614001,19.87,,,,,,,,,,,,,1.5472,0.1088,0.2176
2024-05-02 02:00:01+00:00,1714615201,19.24,,,,,,,,,,,,,1.5504,0.1206,0.2412
2024-05-02 02:20:02+00:00,1714616402,18.61,,,,,,,,,,,,,1.5551,0.1167,0.2334
2024-05-02 02:40:01+00:00,1714617601,18.1,,,,,,,,,,,,,1.5584,0.1271,0.2542
2024-05-02 03:00:01+00:00,1714618801,17.63,,,,,,,,,,,,,1.5664,0.094,0.188
2024-05-02 03:20:01+00:00,1714620001,17.16,,,,,,,,,,,,,1.5728,0.0826,0.1652
2024-05-02 03:40:01+00:00,1714621201,16.74,,,,,,,,,,,,,1.5776,0.1036,0.2072
2024-05-02 04:00:02+00:00,1714622402,16.37,,,,,,,,,,,,,1.5808,0.0771,0.1542
2024-05-02 04:20:02+00:00,1714623602,16.11,,,,,,,,,,,,,1.5792,0.0904,0.1808
2024-05-02 04:40:02+00:00,1714624802,15.89,,,,,,,,,,,,,1.5856,0.0848,0.1696
2024-05-02 05:00:02+00:00,1714626002,15.67,,,,,,,,,,,,,1.5888,0.0954,0.1908
2024-05-02 05:20:01+00:00,1714627201,15.48,,,,,,,,,,,,,1.5904,0.0731,0.1462
2024-05-02 05:40:02+00:00,1714628402,15.34,,,,,,,,,,,,,1.5904,0.0776,0.1552
2024-05-02 06:00:01+00:00,1714629601,15.2,,,,,,,,,,,,,1.5904,0.0896,0.1792
2024-05-02 06:20:02+00:00,1714630802,15.08,,,,,,,,,,,,,1.592,0.0762,0.1524
2024-05-02 06:40:02+00:00,1714632002,14.94,,,,,,,,,,,,,1.592,0.0747,0.1494
2024-05-02 07:00:01+00:00,1714633201,14.83,,,,,,,,,,,,,1.5952,0.0749,0.1498
2024-05-02 07:20:02+00:00,1714634402,14.74,,,,,,,,,,,,,1.5968,0.0929,0.1858
2024-05-02 07:40:01+00:00,1714635601,14.63,,,,,,,,,,,,,1.5983,0.0945,0.189
2024-05-02 08:00:02+00:00,1714636802,14.54,,,,,,,,,,,,,1.6016,0.0827,0.1654
2024-05-02 08:20:02+00:00,1714638002,14.45,,,,,,,,,,,,,1.6032,0.0722,0.1444
2024-05-02 08:40:02+00:00,1714639202,14.38,,,,,,,,,,,,,1.6064,0.0965,0.193
2024-05-02 09:00:01+00:00,1714640401,14.3,,,,,,,,,,,,,1.6112,0.0968,0.1936
2024-05-02 09:20:02+00:00,1714641602,14.22,,,,,,,,,,,,,1.6112,0.0968,0.1936
2024-05-02 09:40:01+00:00,1714642801,14.15,,,,,,,,,,,,,1.6176,0.1064,0.2128
2024-05-02 10:00:02+00:00,1714644002,14.14,,,,,,,,,,,,,1.6176,0.1048,0.2096
2024-05-02 10:20:02+00:00,1714645202,14.15,,,,,,,,,,,,,1.6208,0.1127,0.2254
2024-05-02 10:40:01+00:00,1714646401,14.17,,,,,,,,,,,,,1.624,0.1221,0.2442
2024-05-02 11:00:01+00:00,1714647601,14.13,,,,,,,,,,,,,1.6272,0.1131,0.2262
2024-05-02 11:20:01+00:00,1714648801,14.09,,,,,,,,,,,,,1.6304,0.121,0.242
2024-05-02 11:40:02+00:00,1714650002,14.04,,,,,,,,,,,,,1.6352,0.1337,0.2674
2024-05-02 12:00:02+00:00,1714651202,13.99,,,,,,,,,,,,,1.64,0.1418,0.2836
2024-05-02 12:20:02+00:00,1714652402,13.93,,,,,,,,,,,,,1.6416,0.1605,0.321
2024-05-02 12:40:02+00:00,1714653602,13.86,,,,,,,,,,,,,1.6432,0.1514,0.3028
2024-05-02 13:00:01+00:00,1714654801,13.8,,,,,,,,,,,,,1.648,0.1673,0.3346
2024-05-02 13:20:02+00:00,1714656002,13.73,,,,,,,,,,,,,1.6544,0.1416,0.2832
2024-05-02 13:40:01+00:00,1714657201,13.68,,,,,,,,,,,,,1.6544,0.1384,0.2768
2024-05-02 14:00:01+00:00,1714658401,13.64,,,,,,,,,,,,,1.6544,0.1322,0.2644
2024-05-02 14:20:02+00:00,1714659602,13.6,,,,,,,,,,,,,1.6592,0.1357,0.2714
2024-05-02 14:40:02+00:00,1714660802,13.59,,,,,,,,,,,,,1.656,0.1417,0.2834
2024-05-02 15:00:02+00:00,1714662002,13.59,,,,,,,,,,,,,1.5536,0.1195,0.239
2024-05-02 15:20:02+00:00,1714663202,13.61,,,,,,,,,,,,,1.5744,0.1182,0.2364
2024-05-02 15:40:02+00:00,1714664402,13.63,,,,,,,,,,,,,1.5712,0.1076,0.2152
2024-05-02 16:00:01+00:00,1714665601,13.66,,,,,,,,,,,,,1.5695,0.0913,0.1826
2024-05-02 16:20:02+00:00,1714666802,13.7,,,,,,,,,,,,,1.6672,0.0768,0.1536
2024-05-02 16:40:01+00:00,1714668001,13.77,,,,,,,,,,,,,1.6656,0.072,0.144
2024-05-02 17:00:02+00:00,1714669202,13.84,,,,,,,,,,,,,1.664,0.0234,0.0468
2024-05-02 17:20:02+00:00,1714670402,14.08,,,,,,,,,,,,,1.6464,-0.2957,-0.5914
2024-05-02 17:40:02+00:00,1714671602,14.78,,,,,,,,,,,,,1.6288,-0.5986,-1.1972
2024-05-02 18:00:01+00:00,1714672801,15.16,,,,,,,,,,,,,1.6144,-0.5885,-1.177
2024-05-02 18:20:02+00:00,1714674002,15.47,,,,,,,,,,,,,1.6016,-0.6092,-1.2184
2024-05-02 18:40:01+00:00,1714675201,15.81,,,,,,,,,,,,,1.592,-0.5875,-1.175
2024-05-02 19:00:02+00:00,1714676402,16.21,,,,,,,,,,,,,1.5808,-0.5594,-1.1188
2024-05-02 19:20:01+00:00,1714677601,16.77,,,,,,,,,,,,,1.568,-0.5621,-1.1242
2024-05-02 20:00:02+00:00,1714680002,18.02,,,,,,,,,,,,,1.5488,-0.5432,-1.0864
2024-05-02 20:20:01+00:00,1714681201,18.92,,,,,,,,,,,,,1.544,-0.5125,-1.025
2024-05-02 20:40:02+00:00,1714682402,19.49,,,,,,,,,,,,,1.5328,-0.4986,-0.9972
2024-05-02 21:40:02+00:00,1714686002,20.51,29733.41,19.49,,,,,,,158.45,,,,1.5008,-0.4245,-0.849
2024-05-02 22:00:02+00:00,1714687202,20.7,,,,,,,,,,,,,1.5024,-0.3616,-0.7232
2024-05-02 22:20:01+00:00,1714688401,20.75,,,,,,,,,,,,,1.5168,0.0071,0.0142
2024-05-02 22:40:02+00:00,1714689602,20.51,,,,,,,,,,,,,1.5104,0.0551,0.1102
2024-05-02 23:00:01+00:00,1714690801,20.26,,,,,,,,,,,,,1.512,0.0339,0.0678
2024-05-02 23:20:01+00:00,1714692001,20.27,,,,,,,,,,,,,1.5152,0.088,0.176
2024-05-02 23:40:02+00:00,1714693202,20.28,,,,,,,,,,,,,1.5168,0.0255,0.051
2024-05-03 00:00:02+00:00,1714694402,20.4,,,,,,,,,,,,,1.5376,0.0677,0.1354
2024-05-03 00:20:02+00:00,1714695602,20.6,,,,,,,,,,,,,1.5344,0.1078,0.2156
2024-05-03 01:00:02+00:00,1714698002,20.69,,,,,,,,,,,,,1.544,0.1621,0.3242
2024-05-03 01:20:01+00:00,1714699201,20.78,,,,,,,,,,,,,1.5408,0.1242,0.2484
2024-05-03 01:40:02+00:00,1714700402,20.8,,,,,,,,,,,,,1.5456,0.1159,0.2318
2024-05-03 02:00:02+00:00,1714701602,20.87,,,,,,,,,,,,,1.5488,0.1278,0.2556
2024-05-03 02:20:02+00:00,1714702802,20.68,,,,,,,,,,,,,1.5536,0.1457,0.2914
2024-05-03 02:40:01+00:00,1714704001,20.27,,,,,,,,,,,,,1.5616,0.1142,0.2284
2024-05-03 03:00:01+00:00,1714705201,19.84,,,,,,,,,,,,,1.568,0.1412,0.2824
2024-05-03 03:20:02+00:00,1714706402,19.21,,,,,,,,,,,,,1.5695,0.1502,0.3004
2024-05-03 03:40:02+00:00,1714707602,18.49,,,,,,,,,,,,,1.5712,0.1061,0.2122
2024-05-03 04:00:02+00:00,1714708802,17.89,,,,,,,,,,,,,1.5792,0.1156,0.2312
2024-05-03 04:20:02+00:00,1714710002,17.34,,,,,,,,,,,,,1.5808,0.086,0.172
2024-05-03 05:00:01+00:00,1714712401,16.74,,,,,,,,,,,,,1.5983,0.0795,0.159
2024-05-03 05:20:01+00:00,1714713601,16.53,,,,,,,,,,,,,1.5983,0.1185,0.237
2024-05-03 05:40:02+00:00,1714714802,16.4,,,,,,,,,,,,,1.5952,0.1138,0.2276
2024-05-03 06:00:02+00:00,1714716002,16.3,,,,,,,,,,,,,1.6048,0.0618,0.1236
2024-05-03 06:20:01+00:00,1714717201,16.23,,,,,,,,,,,,,1.6064,0.0784,0.1568
2024-05-03 06:40:02+00:00,1714718402,16.13,,,,,,,,,,,,,1.6064,0.089,0.178
2024-05-03 07:00:02+00:00,1714719602,16.04,,,,,,,,,,,,,1.6064,0.0558,0.1116
2024-05-03 07:40:01+00:00,1714722001,15.86,,,,,,,,,,,,,1.6096,0.062,0.124
2024-05-03 08:00:02+00:00,1714723202,15.77,,,,,,,,,,,,,1.616,0.085,0.17
2024-05-03 08:20:01+00:00,1714724401,15.65,,,,,,,,,,,,,1.6144,0.0788,0.1576
2024-05-03 08:40:02+00:00,1714725602,15.53,,,,,,,,,,,,,1.6128,0.0651,0.1302
2024-05-03 09:00:02+00:00,1714726802,15.43,,,,,,,,,,,,,1.6144,0.0864,0.1728
2024-05-03 09:20:02+00:00,1714728002,15.38,,,,,,,,,,,,,1.3936,0.0832,0.1664
2024-05-03 09:40:01+00:00,1714729201,15.35,,,,,,,,,,,,,1.6224,0.0869,0.1738
2024-05-03 10:20:02+00:00,1714731602,15.32,,,,,,,,,,,,,1.6208,0.0822,0.1644
2024-05-03 10:40:02+00:00,1714732802,15.3,,,,,,,,,,,,,1.624,0.0931,0.1862
2024-05-03 11:00:01+00:00,1714734001,15.32,,,,,,,,,,,,,1.6272,0.1192,0.2384
2024-05-03 11:20:02+00:00,1714735202,15.34,,,,,,,,,,,,,1.6288,0.1132,0.2264
2024-05-03 11:40:02+00:00,1714736402,15.34,,,,,,,,,,,,,1.6304,0.1318,0.2636
2024-05-03 12:00:01+00:00,1714737601,15.3,,,,,,,,,,,,,1.632,0.1334,0.2668
2024-05-03 12:20:01+00:00,1714738801,15.27,,,,,,,,,,,,,1.6352,0.1475,0.295
2024-05-03 12:40:01+00:00,1714740001,15.24,,,,,,,,,,,,,1.6352,0.1445,0.289
2024-05-03 13:00:01+00:00,1714741201,15.17,,,,,,,,,,,,,1.6384,0.1602,0.3204
2024-05-03 13:20:01+00:00,1714742401,15.09,,,,,,,,,,,,,1.6464,0.1532,0.3064
2024-05-03 13:40:02+00:00,1714743602,15,,,,,,,,,,,,,1.6496,0.1722,0.3444
2024-05-03 14:00:01+00:00,1714744801,14.89,,,,,,,,,,,,,1.6496,0.1504,0.3008
2024-05-03 14:20:02+00:00,1714746002,14.78,,,,,,,,,,,,,1.6528,0.143,0.286
2024-05-03 14:40:02+00:00,1714747202,14.71,,,,,,,,,,,,,1.6576,0.1543,0.3086
2024-05-03 15:00:01+00:00,1714748401,14.67,,,,,,,,,,,,,1.6592,0.1529,0.3058
2024-05-03 15:20:01+00:00,1714749601,14.62,,,,,,,,,,,,,1.656,0.1059,0.2118
2024-05-03 15:40:02+00:00,1714750802,14.59,,,,,,,,,,,,,1.6592,0.1186,0.2372
2024-05-03 16:00:02+00:00,1714752002,14.58,,,,,,,,,,,,,1.664,0.1221,0.2442
2024-05-03 16:20:01+00:00,1714753201,14.57,,,,,,,,,,,,,1.6656,0.1237,0.2474
2024-05-03 16:40:02+00:00,1714754402,14.58,,,,,,,,,,,,,1.6624,0.136,0.272
2024-05-03 17:00:02+00:00,1714755602,14.63,,,,,,,,,,,,,1.6592,0.0905,0.181
2024-05-03 17:20:01+00:00,1714756801,14.71,,,,,,,,,,,,,1.6576,0.1091,0.2182
2024-05-03 17:40:01+00:00,1714758001,14.81,,,,,,,,,,,,,1.6496,0.0558,0.1116
2024-05-03 18:00:02+00:00,1714759202,14.93,,,,,,,,,,,,,1.648,0.0123,0.0246
2024-05-03 18:20:01+00:00,1714760401,15.01,,,,,,,,,,,,,1.6512,-0.0543,-0.1086
2024-05-03 18:40:01+00:00,1714761601,15.76,,,,,,,,,,,,,1.6336,-0.4161,-0.8322
2024-05-03 19:00:01+00:00,1714762801,16.93,,,,,,,,,,,,,1.6192,-0.5979,-1.1958
2024-05-03 19:20:01+00:00,1714764001,17.75,,,,,,,,,,,,,1.6064,-0.6277,-1.2554
2024-05-03 19:40:02+00:00,1714765202,18.83,,,,,,,,,,,,,1.5983,-0.6305,-1.261
2024-05-03 20:00:01+00:00,1714766401,19.5,,,,,,,,,,,,,1.5904,-0.5689,-1.1378
2024-05-03 20:20:02+00:00,1714767602,19.48,,,,,,,,,,,,,1.5776,-0.5093,-1.0186
2024-05-03 20:40:02+00:00,1714768802,19.63,,,,,,,,,,,,,1.5664,-0.5614,-1.1228
2024-05-03 21:00:02+00:00,1714770002,19.87,,,,,,,,,,,,,1.5551,-0.512,-1.024
2024-05-03 21:20:02+00:00,1714771202,20.23,,,,,,,,,,,,,1.5408,-0.5692,-1.1384
2024-05-03 22:00:01+00:00,1714773601,21.52,,,,,,,,,,,,,1.528,-0.5313,-1.0626
2024-05-03 22:20:02+00:00,1714774802,22.05,,,,,,,,,,,,,1.5232,-0.5053,-1.0106
2024-05-03 22:40:01+00:00,1714776001,22.41,,,,,,,,,,,,,1.536,-0.1699,-0.3398
2024-05-03 23:00:02+00:00,1714777202,22.47,,,,,,,,,,,,,1.5408,0.039,0.078
2024-05-03 23:40:01+00:00,1714779601,21.78,,,,,,,,,,,,,1.5408,0.0216,0.0432
2024-05-04 00:00:02+00:00,1714780802,22.12,,,,,,,,,,,,,1.5456,0.0536,0.1072
2024-05-04 00:20:01+00:00,1714782001,22.16,,,,,,,,,,,,,1.5536,0.0918,0.1836
2024-05-04 00:40:02+00:00,1714783202,22.18,,,,,,,,,,,,,1.5551,0.0744,0.1488
2024-05-04 01:00:02+00:00,1714784402,22.3,,,,,,,,,,,,,1.5648,0.0748,0.1496
2024-05-04 01:20:01+00:00,1714785601,22.36,,,,,,,,,,,,,1.5695,0.1104,0.2208
2024-05-04 01:40:01+00:00,1714786801,22.33,,,,,,,,,,,,,1.576,0.1257,0.2514
2024-05-04 02:00:01+00:00,1714788001,21.62,,,,,,,,,,,,,1.5808,0.1305,0.261
2024-05-04 02:20:02+00:00,1714789202,20.36,,,,,,,,,,,,,1.5792,0.1793,0.3586
2024-05-04 02:40:01+00:00,1714790401,19.47,,,,,,,,,,,,,1.5808,0.1647,0.3294
2024-05-04 03:00:02+00:00,1714791602,18.79,,,,,,,,,,,,,1.5872,0.1639,0.3278
2024-05-04 03:20:02+00:00,1714792802,18.22,,,,,,,,,,,,,1.5888,0.173,0.346
2024-05-04 03:40:01+00:00,1714794001,17.81,,,,,,,,,,,,,1.5936,0.1631,0.3262
2024-05-04 04:00:01+00:00,1714795201,17.51,,,,,,,,,,,,,1.5983,0.1426,0.2852
2024-05-04 04:20:01+00:00,1714796401,17.2,,,,,,,,,,,,,1.6032,0.1355,0.271
2024-05-04 04:40:02+00:00,1714797602,16.82,,,,,,,,,,,,,1.6016,0.1534,0.3068
2024-05-04 05:00:01+00:00,1714798801,16.51,,,,,,,,,,,,,1.6048,0.1281,0.2562
2024-05-04 05:20:01+00:00,1714800001,16.27,,,,,,,,,,,,,1.608,0.1374,0.2748
2024-05-04 05:40:02+00:00,1714801202,16.07,,,,,,,,,,,,,1.6112,0.1256,0.2512
2024-05-04 06:00:02+00:00,1714802402,15.89,,,,,,,,,,,,,1.608,0.1419,0.2838
2024-05-04 06:20:01+00:00,1714803601,15.81,,,,,,,,,,,,,1.6096,0.0544,0.1088
2024-05-04 06:40:01+00:00,1714804801,15.75,,,,,,,,,,,,,1.6128,0.1181,0.2362
2024-05-04 07:00:02+00:00,1714806002,15.67,,,,,,,,,,,,,1.6096,0.0241,0.0482
2024-05-04 07:20:02+00:00,1714807202,15.67,,,,,,,,,,,,,3.2896,0.1837,0.3674
2024-05-04 07:40:02+00:00,1714808402,15.63,,,,,,,,,,,,,3.288,0.1424,0.2848
2024-05-04 08:00:01+00:00,1714809601,15.62,,,,,,,,,,,,,3.2864,0.1044,0.2088
2024-05-04 08:40:01+00:00,1714812001,15.61,,,,,,,,,,,,,3.2943,0.1776,0.3552
2024-05-04 09:00:02+00:00,1714813202,15.54,,,,,,,,,,,,,3.2896,0.019,0.038
2024-05-04 09:20:02+00:00,1714814402,15.55,,,,,,,,,,,,,3.2992,0.0222,0.0444
2024-05-04 09:40:02+00:00,1714815602,15.52,,,,,,,,,,,,,3.3008,0.0826,0.1652
2024-05-04 10:00:01+00:00,1714816801,15.47,,,,,,,,,,,,,-1,0,0
2024-05-04 10:20:01+00:00,1714818001,15.45,,,,,,,,,,,,,3.2992,0.0603,0.1206
2024-05-04 10:40:01+00:00,1714819201,15.49,,,,,,,,,,,,,1.6272,0.0596,0.1192
2024-05-04 11:00:01+00:00,1714820401,15.47,,,,,,,,,,,,,3.3024,0.1017,0.2034
2024-05-04 11:20:02+00:00,1714821602,15.49,,,,,,,,,,,,,3.304,0.1654,0.3308
2024-05-04 11:40:02+00:00,1714822802,15.51,,,,,,,,,,,,,3.3104,0.0446,0.0892
2024-05-04 12:00:02+00:00,1714824002,15.51,,,,,,,,,,,,,3.32,0.195,0.39
2024-05-04 12:20:01+00:00,1714825201,15.52,,,,,,,,,,,,,3.3232,0.1952,0.3904
2024-05-04 12:40:02+00:00,1714826402,15.56,,,,,,,,,,,,,3.3312,0.2214,0.4428
2024-05-04 13:00:01+00:00,1714827601,15.58,,,,,,,,,,,,,1.648,0.1317,0.2634
2024-05-04 13:20:01+00:00,1714828801,15.61,,,,,,,,,,,,,1.6512,0.1149,0.2298
2024-05-04 13:40:01+00:00,1714830001,15.58,,,,,,,,,,,,,1.6528,0.1367,0.2734
2024-05-04 14:00:01+00:00,1714831201,15.54,,,,,,,,,,,,,1.6528,0.157,0.314
2024-05-04 14:20:02+00:00,1714832402,15.52,,,,,,,,,,,,,1.6528,0.1601,0.3202
2024-05-04 14:40:02+00:00,1714833602,15.49,,,,,,,,,,,,,1.656,0.1557,0.3114
2024-05-04 15:00:01+00:00,1714834801,15.46,,,,,,,,,,,,,1.6576,0.1886,0.3772
2024-05-04 15:20:01+00:00,1714836001,15.4,,,,,,,,,,,,,1.6576,0.1652,0.3304
2024-05-04 15:40:02+00:00,1714837202,15.27,,,,,,,,,,,,,1.664,0.1502,0.3004
2024-05-04 16:00:02+00:00,1714838402,15.22,,,,,,,,,,,,,1.6672,0.1615,0.323
2024-05-04 16:20:02+00:00,1714839602,15.22,,,,,,,,,,,,,1.6688,0.1554,0.3108
2024-05-04 16:40:02+00:00,1714840802,15.24,,,,,,,,,,,,,1.6688,0.1444,0.2888
2024-05-04 17:00:01+00:00,1714842001,15.26,,,,,,,,,,,,,1.6688,0.1523,0.3046
2024-05-04 17:20:02+00:00,1714843202,15.26,,,,,,,,,,,,,1.672,0.1148,0.2296
2024-05-04 17:40:01+00:00,1714844401,15.26,,,,,,,,,,,,,1.6752,0.093,0.186
2024-05-04 18:00:02+00:00,1714845602,15.25,,,,,,,,,,,,,1.696,0.0079,0.0158
2024-05-04 18:20:02+00:00,1714846802,15.22,,,,,,,,,,,,,1.7008,0.1297,0.2594
2024-05-04 18:40:01+00:00,1714848001,15.2,,,,,,,,,,,,,1.6928,0.0828,0.1656
2024-05-04 19:20:02+00:00,1714850402,15.18,,,,,,,,,,,,,1.6992,0.1808,0.3616
2024-05-04 19:40:02+00:00,1714851602,15.3,,,,,,,,,,,,,1.6576,0.1683,0.3366
2024-05-04 20:00:01+00:00,1714852801,15.44,,,,,,,,,,,,,1.6384,-0.3974,-0.7948
2024-05-04 20:20:01+00:00,1714854001,15.46,,,,,,,,,,,,,1.64,-0.6753,-1.3506
2024-05-04 20:40:02+00:00,1714855202,15.45,,,,,,,,,,,,,1.6336,-0.6388,-1.2776
2024-05-04 21:00:01+00:00,1714856401,15.43,,,,,,,,,,,,,1.6288,-0.6323,-1.2646
2024-05-04 21:20:01+00:00,1714857601,15.47,,,,,,,,,,,,,1.624,-0.6074,-1.2148
2024-05-04 22:00:02+00:00,1714860002,15.55,,,,,,,,,,,,,1.6064,-0.5945,-1.189
2024-05-04 22:20:02+00:00,1714861202,15.63,,,,,,,,,,,,,1.5968,-0.5728,-1.1456
2024-05-04 22:40:02+00:00,1714862402,15.77,,,,,,,,,,,,,1.5968,-0.5458,-1.0916
2024-05-04 23:00:02+00:00,1714863602,15.95,,,,,,,,,,,,,1.6144,-0.2957,-0.5914
2024-05-04 23:20:02+00:00,1714864802,15.93,,,,,,,,,,,,,1.6272,0.0887,0.1774
2024-05-04 23:40:02+00:00,1714866002,15.91,,,,,,,,,,,,,1.6224,0.0518,0.1036
2024-05-05 00:00:01+00:00,1714867201,15.91,,,,,,,,,,,,,1.6272,0.0336,0.0672
2024-05-05 00:20:01+00:00,1714868401,15.94,,,,,,,,,,,,,1.6224,0.1158,0.2316
2024-05-05 00:40:02+00:00,1714869602,16.02,,,,,,,,,,,,,1.6224,0.064,0.128
2024-05-05 01:00:02+00:00,1714870802,16.07,,,,,,,,,,,,,1.6288,0.127,0.254
2024-05-05 01:20:01+00:00,1714872001,16.14,,,,,,,,,,,,,1.6272,0.1254,0.2508
2024-05-05 01:40:02+00:00,1714873202,16.26,,,,,,,,,,,,,1.6336,0.0998,0.1996
2024-05-05 02:00:02+00:00,1714874402,16.32,,,,,,,,,,,,,1.6416,0.1373,0.2746
2024-05-05 02:20:02+00:00,1714875602,16.36,,,,,,,,,,,,,1.6464,0.1532,0.3064
2024-05-05 02:40:01+00:00,1714876801,16.32,,,,,,,,,,,,,1.6544,0.1571,0.3142
2024-05-05 03:00:02+00:00,1714878002,16.06,,,,,,,,,,,,,1.6592,0.181,0.362
2024-05-05 03:20:01+00:00,1714879201,15.63,,,,,,,,,,,,,1.664,0.1487,0.2974
2024-05-05 03:40:01+00:00,1714880401,15.35,,,,,,,,,,,,,1.6672,0.1913,0.3826
2024-05-05 04:00:01+00:00,1714881601,15.12,,,,,,,,,,,,,1.6688,0.1648,0.3296
2024-05-05 04:20:01+00:00,1714882801,14.94,,,,,,,,,,,,,1.6784,0.1627,0.3254
2024-05-05 04:40:02+00:00,1714884002,14.74,,,,,,,,,,,,,1.68,0.1944,0.3888
2024-05-05 05:00:02+00:00,1714885202,14.6,,,,,,,,,,,,,1.68,0.128,0.256
2024-05-05 05:20:02+00:00,1714886402,14.51,,,,,,,,,,,,,1.688,0.1557,0.3114
2024-05-05 05:40:02+00:00,1714887602,14.42,,,,,,,,,,,,,3.4272,0.2643,0.5286
2024-05-05 06:00:01+00:00,1714888801,14.36,,,,,,,,,,,,,1.6976,0.1374,0.2748
2024-05-05 06:20:02+00:00,1714890002,14.32,,,,,,,,,,,,,1.704,0.0914,0.1828
2024-05-05 06:40:01+00:00,1714891201,14.28,,,,,,,,,,,,,1.704,0.1315,0.263
2024-05-05 07:00:01+00:00,1714892401,14.22,,,,,,,,,,,,,1.7024,0.0737,0.1474
2024-05-05 07:20:01+00:00,1714893601,14.21,,,,,,,,,,,,,1.7088,0.0547,0.1094
2024-05-05 07:40:02+00:00,1714894802,14.17,,,,,,,,,,,,,1.7184,0.0485,0.097
2024-05-05 08:00:01+00:00,1714896001,14.15,,,,,,,,,,,,,1.7152,0.0678,0.1356
2024-05-05 08:20:01+00:00,1714897201,14.16,,,,,,,,,,,,,1.7103,0.0531,0.1062
2024-05-05 08:40:01+00:00,1714898401,14.18,,,,,,,,,,,,,1.7088,-0.1303,-0.2606
2024-05-05 09:00:02+00:00,1714899602,14.45,,,,,,,,,,,,,1.6944,-0.5105,-1.021
2024-05-05 09:20:02+00:00,1714900802,14.27,,,,,,,,,,,,,1.6768,-0.6312,-1.2624
2024-05-05 09:40:01+00:00,1714902001,14.16,,,,,,,,,,,,,1.664,-0.6121,-1.2242
2024-05-05 10:00:02+00:00,1714903202,14.53,,,,,,,,,,,,,1.6544,-0.666,-1.332
2024-05-05 10:20:01+00:00,1714904401,14.42,,,,,,,,,,,,,1.6496,-0.7043,-1.4086
2024-05-05 11:00:02+00:00,1714906802,14.34,,,,,,,,,,,,,1.6336,-0.5682,-1.1364
2024-05-05 11:20:02+00:00,1714908002,14.33,,,,,,,,,,,,,1.6352,-0.5595,-1.119
2024-05-05 11:40:02+00:00,1714909202,14.58,,,,,,,,,,,,,1.6496,-0.1396,-0.2792
2024-05-05 12:00:02+00:00,1714910402,14.81,,,,,,,,,,,,,1.6576,0.0343,0.0686